Location: Unnamed
(54.5186°N, 36.2255°E)
Time: 17:51:18
(UTC+03:00)

ISS - Pass Details

Date: 25 February 2026
Orbit: 416 x 427 km, 51.6° (Epoch: 5 March)

Event Time Altitude Azimuth Distance (km) Brightness Sun altitude
Exits shadow 04:46:04 26° 111° (ESE) 855 -1.8 -24.9°
Drops below altitude 10° 04:47:47 10° 98° (E) 1,496 -0.2 -24.6°
Sets 04:49:54 0° 93° (E) 2,359 1.2 -24.3°
